Flag for Canada Weather past 2 weeks in East Hants, Nova Scotia, Canada

Now
32 °F

Passing clouds.


Feels Like: 24 °F
Forecast: 22 / 36 °F
Wind: 10 mph from North

Location: Halifax International Airport

Current Time: Apr 1, 2015 at 10:43:41 AM

Latest Report: Apr 1, 2015 at 10:00 AM


Visibility: 15 mi

Pressure: 29.77 "Hg

Humidity: 69%

Dew point: 23 °F

Location of East HantsLocation

Historic Weather in East Hants — Graph

°F

East Hants temperature yesterday

Maximum temperature yesterday: 39 °F (at 2:00 PM)
Minimum temperature yesterday: 30 °F (at 12:00 AM)
Average temperature yesterday: 33 °F

Past Weeks' High & Low Weather Summary

 TemperatureHumidityPressure
High39 °F (Mar 25, 3:00 PM)100% (Mar 21, 5:50 AM)30.30 "Hg (Mar 21, 5:50 AM)
Low7 °F (Mar 23, 2:00 AM)31% (Mar 20, 5:00 PM)29.02 "Hg (Mar 18, 6:00 AM)
Average27 °F78%29.79 "Hg
* Reported Mar 17 9:00 AM — Apr 1 9:00 AM, East Hants, Weather by CustomWeather, © 2015

Note: Actual official high and low records may vary slightly from our data, if they occured in-between our weather recording intervals... More about our weather records

Advertising

East Hants weather history for previous 24 hours

 ConditionsComfort  
Time TempWeatherWind HumidityBarometerVisibility
9:00 AM
Wed, Apr 1
28 °FPassing clouds.8 mph80%29.75 "Hg15 mi
8:00 AM27 °FPassing clouds.8 mph80%29.74 "Hg15 mi
7:00 AM27 °FPassing clouds.5 mph86%29.73 "Hg15 mi
6:00 AM27 °FPassing clouds.3 mph86%29.70 "Hg15 mi
5:00 AM25 °FPassing clouds.6 mph86%29.69 "Hg15 mi
4:00 AM30 °FPassing clouds.5 mph80%29.70 "Hg15 mi
3:00 AM30 °FPassing clouds.8 mph80%29.70 "Hg15 mi
2:00 AM30 °FPassing clouds.10 mph86%29.70 "Hg15 mi
1:00 AM30 °FPassing clouds.9 mph86%29.70 "Hg15 mi
12:00 AM34 °FPassing clouds.12 mph75%29.70 "Hg15 mi
11:00 PM
Tue, Mar 31
34 °FPassing clouds.13 mph81%29.68 "Hg15 mi
10:00 PM34 °FPassing clouds.12 mph81%29.66 "Hg15 mi
9:00 PM36 °FPassing clouds.12 mph70%29.63 "Hg15 mi
8:00 PM36 °FScattered clouds.10 mph70%29.59 "Hg15 mi
7:00 PM37 °FPartly sunny.12 mph70%29.56 "Hg15 mi
6:00 PM37 °FPartly sunny.12 mph70%29.54 "Hg15 mi
5:00 PM39 °FPartly sunny.15 mph65%29.51 "Hg15 mi
4:00 PM39 °FPartly sunny.17 mph70%29.49 "Hg15 mi
3:00 PM37 °FSnow flurries. Partly sunny.15 mph75%29.47 "Hg12 mi
2:00 PM39 °FBroken clouds.15 mph70%29.47 "Hg15 mi
1:00 PM37 °FPartly sunny.20 mph75%29.47 "Hg15 mi
12:00 PM36 °FLow clouds.13 mph87%29.48 "Hg15 mi
11:00 AM34 °FLow clouds.16 mph93%29.48 "Hg15 mi
10:00 AM32 °FPartly sunny.12 mph100%29.47 "Hg10 mi
Weather by CustomWeather, © 2015

See weather overviewHow to use our weather pages